Regional Weather Roundup
Issued by NWS

Home | Current Version | Previous Version | Graphics & Text | Print | Product List | Glossary On
Versions: 1 2 3 4 5 6 7 8 9 10 11 12 13 14 15 16 17 18 19 20 21 22 23 24 25 26 27 28 29 30 31 32 33 34 35 36 37 38 39 40 41 42 43 44 45 46 47 48 49 50
000
ASUS43 KIND 291459
RWRIN

WEATHER ROUNDUP FOR INDIANA
NATIONAL WEATHER SERVICE INDIANAPOLIS IN
1100 AM EDT TUE JUL 29 2014

NOTE: "FAIR" INDICATES FEW OR NO CLOUDS BELOW 12,000 FEET WITH NO
SIGNIFICANT WEATHER AND/OR OBSTRUCTIONS TO VISIBILITY.

* - STATION DOES NOT REPORT WEATHER SUCH AS PRECIPITATION OR FOG.

+ - STATION NOT QUALITY CONTROLLED BY THE NATIONAL WEATHER SERVICE.
    USE DATA WITH CAUTION...ESPECIALLY DEWPOINT AND RELATIVE
    HUMIDITY OBSERVATIONS.

INZ001>003-010>013-019-020-291600-
NORTHWEST INDIANA

CITY           SKY/WX    TMP DP  RH WIND       PRES   REMARKS
GARY /AIRPORT/ MOSUNNY   72  57  60 W14       30.05F
KNOX *+        PTSUNNY   66  53  64 SW5       30.04F
MONTICELLO +   MOSUNNY   66  55  69 W3        30.06S
RENSSELAER +   PTSUNNY   68  61  77 SW5       30.07F
VALPARAISO     MOSUNNY   69  57  65 W7        30.05F

$$

LMZ046-743>745-291600-
SOUTHERN LAKE MICHIGAN

STATION/POSITION TIME  TEMP WIND        PRES
                       AIR  DIR/SP/G
                 (UTC) (F)  (DEG/KT/KT) (MB)
MICHIGAN CITY    1400   64  220/ 11/ 14   N/A

$$

INZ004-005-014>016-021>024-291600-
NORTH CENTRAL INDIANA

CITY           SKY/WX    TMP DP  RH WIND       PRES   REMARKS
GOSHEN         CLOUDY    63  54  72 SW7       30.05S
PERU/GRISSOM   SUNNY     66  57  73 W5        30.07S
SOUTH BEND     PTSUNNY   65  53  65 SW10      30.04F
WARSAW +       CLOUDY    63  54  72 SW6       30.06S

$$

INZ006>009-017-018-025>027-291600-
NORTHEAST INDIANA

CITY           SKY/WX    TMP DP  RH WIND       PRES   REMARKS
ANGOLA *+      PTSUNNY   63  54  72 VRB3      30.05R
AUBURN +       SUNNY     64  50  59 SW5       30.06S
FORT WAYNE     MOSUNNY   65  51  60 W8        30.07S

$$

INZ028-029-035-036-043>045-051>053-291600-
WEST CENTRAL INDIANA

CITY           SKY/WX    TMP DP  RH WIND       PRES   REMARKS
GREENCASTLE +  SUNNY     64  54  68 N3        30.09S
LAFAYETTE      SUNNY     65  56  72 W5        30.07F
TERRE HAUTE    SUNNY     68  56  65 NW7       30.09S

$$

INZ030>032-037>040-046>048-054>057-064-065-291600-
CENTRAL INDIANA

CITY           SKY/WX    TMP DP  RH WIND       PRES   REMARKS
ANDERSON       SUNNY     64  48  55 NW12      30.09S
COLUMBUS       SUNNY     64  54  68 N5        30.08F
INDIANAPOLIS   SUNNY     67  50  54 CALM      30.09R
-EAGLE CREEK   SUNNY     67  50  54 CALM      30.08R
KOKOMO *+      SUNNY     66  54  63 W7        30.07S
MT COMFORT *+  SUNNY     66  57  72 NW5       30.09R
SHELBYVILLE    SUNNY     67  53  61 N7        30.08S
ZIONSVILLE +   SUNNY     66  51  57 CALM      30.09R

$$

INZ033-034-041-042-049-050-058-059-291600-
EAST CENTRAL INDIANA

CITY           SKY/WX    TMP DP  RH WIND       PRES   REMARKS
MUNCIE         SUNNY     64  51  62 W3        30.08S

$$

INZ060-061-067>069-081>083-085>088-291600-
SOUTHWEST INDIANA

CITY           SKY/WX    TMP DP  RH WIND       PRES   REMARKS
EVANSVILLE     SUNNY     70  53  54 NW10      30.12S

$$

INZ062-063-066-070>080-084-089>092-291600-
SOUTH CENTRAL AND SOUTHEAST INDIANA

CITY           SKY/WX    TMP DP  RH WIND       PRES   REMARKS
BLOOMINGTON    SUNNY     66  53  63 CALM      30.09S

$$




USA.gov is the U.S. government's official web portal to all federal, state and local government web resources and services.